Flag Weather past 2 weeks in Würzburg, Bavaria, Germany

Now
42 °F

Sunny.


Feels Like: 42 °F
Forecast: 40 / 52 °F
Wind: 2 mph from South

Location: Wuerzburg

Current Time: Nov 23, 2014 at 12:20:20 PM

Latest Report: Nov 23, 2014 at 11:00 AM


Visibility: 5 mi

Pressure: 30.27 "Hg

Humidity: 87%

Dew point: 38 °F

Location of WürzburgLocation

Historic Weather in Würzburg — Graph

°F

Würzburg temperature yesterday

Maximum temperature yesterday: 40 °F (at 4:00 PM)
Minimum temperature yesterday: 33 °F (at 6:00 AM)
Average temperature yesterday: 37 °F

Past Weeks' High & Low Weather Summary

 TemperatureHumidityPressure
High55 °F (Nov 8, 3:00 PM)100% (Nov 11, 12:00 AM)30.35 "Hg (Nov 11, 12:00 AM)
Low33 °F (Nov 23, 8:00 AM)62% (Nov 8, 3:00 PM)29.47 "Hg (Nov 16, 4:00 AM)
Average44 °F93%29.92 "Hg
* Reported Nov 8 11:00 AM — Nov 23 11:00 AM, Würzburg, Weather by CustomWeather, © 2014

Note: Actual official high and low records may vary slightly from our data, if they occured in-between our weather recording intervals... More about our weather records

Advertising

Würzburg weather history for previous 24 hours

 ConditionsComfort  
Time TempWeatherWind HumidityBarometerVisibility
11:00 AM
Nov 23
42 °FSunny.2 mph87%30.27 "Hg5 mi
10:00 AM38 °FFog.1 mph95%30.28 "Hg3 mi
9:00 AM35 °FFog.1 mph99%30.29 "Hg2 mi
8:00 AM33 °FFog.1 mph100%30.29 "Hg2 mi
7:00 AM33 °FFog.1 mph100%30.27 "Hg2 mi
6:00 AM33 °FFog.1 mph100%30.26 "Hg3 mi
5:00 AM33 °FClear.2 mph100%30.26 "Hg1 mi
4:00 AM34 °FClear.3 mph99%30.26 "Hg1 mi
3:00 AM35 °FFog.2 mph98%30.26 "Hg2 mi
2:00 AM36 °FFog.2 mph98%30.26 "Hg2 mi
1:00 AM38 °FFog.3 mph97%30.26 "Hg2 mi
12:00 AM39 °FFog.2 mph97%30.26 "Hg2 mi
11:00 PM
Nov 22
39 °FFog.2 mph97%30.26 "Hg3 mi
10:00 PM40 °FFog.2 mph97%30.25 "Hg1 mi
9:00 PM39 °FFog.2 mph98%30.24 "Hg2 mi
8:00 PM39 °FFog.2 mph99%30.24 "Hg2 mi
7:00 PM38 °FFog.3 mph98%30.24 "Hg2 mi
6:00 PM39 °FFog.2 mph98%30.24 "Hg3 mi
5:00 PM39 °FFog.3 mph97%30.24 "Hg2 mi
4:00 PM40 °FFog.3 mph97%30.23 "Hg3 mi
3:00 PM40 °FFog.5 mph96%30.22 "Hg3 mi
2:00 PM39 °FFog.3 mph96%30.22 "Hg3 mi
1:00 PM39 °FFog.3 mph97%30.24 "Hg3 mi
12:00 PM38 °FFog.3 mph97%30.24 "Hg3 mi
Weather by CustomWeather, © 2014

See weather overviewHow to use our weather pages